Left ArrowRight Arrow

Hourly Observations for February 2, 2015

Temp ( °F °C ) Dew Point ( °F °C ) Humidity (%) Winds ( mph kmh ) Pressure ( in mb ) Visibility ( mi km ) Precip ( " mm )
12:53 am 00:53 Cloudy 28 -2.2 26 -3.3 92 92 E 3 6 30.13 1020 7 11 0.00 0.03
1:53 am 01:53 Cloudy with Mist and Fog 25 -3.9 24 -4.4 96 96 NNW 5 7 30.15 1021 5 8 0.00 0.00
2:53 am 02:53 Cloudy with Mist and Fog 25 -3.9 25 -3.9 100 100 WNW 3 6 30.17 1022 6 10 0.00 0.00
3:53 am 03:53 Cloudy with Mist and Fog 27 -2.8 24 -4.4 89 89 Calm 30.17 1022 5 8 0.00 0.00
4:53 am 04:53 Cloudy with Mist and Fog 26 -3.3 25 -3.9 96 96 Calm 30.16 1022 5 8 0.00 0.00
5:30 am 05:30 Mostly Cloudy with Mist and Fog 23 -5 22 -5.6 96 96 Calm 30.24 1024 2 3 0.00 0.00
5:36 am 05:36 Mostly Cloudy with Mist and Fog 21 -6 21 -6 100 100 Calm 30.27 1025 1 2 0.00 0.00
5:46 am 05:46 Mostly Cloudy with Mist and Fog 23 -5 21 -6 93 93 Calm 30.24 1024 1 2 0.00 0.00
5:50 am 05:50 Mostly Cloudy with Mist and Fog 25 -4 21 -6 86 86 Calm 30.24 1024 2 2 0.00 0.00
5:53 am 05:53 Partly Cloudy with Mist and Fog 24 -4.4 22 -5.6 91 91 Calm 30.17 1022 2 3 0.00 0.00
6:00 am 06:00 Partly Cloudy with Mist and Fog 23 -5 21 -6 93 93 Calm 30.24 1024 1 2 0.00 0.00
6:17 am 06:17 Mostly Cloudy with Mist and Fog 21 -6.1 20 -6.7 96 96 Calm 30.27 1025 1 2 0.00 0.00
6:20 am 06:20 Mostly Cloudy with Mist and Fog 21 -6 19 -7 93 93 Calm 30.27 1025 3 4 0.00 0.00
6:27 am 06:27 Mostly Cloudy with Mist and Fog 22 -5.6 21 -6.1 96 96 SSE 3 6 30.27 1025 5 8 0.00 0.00
6:37 am 06:37 Mostly Cloudy with Mist and Fog 21 -6.1 20 -6.7 96 96 SE 7 11 30.27 1025 3 4 0.00 0.00
6:40 am 06:40 Mostly Cloudy with Mist and Fog 21 -6 19 -7 93 93 S 5 7 30.27 1025 1 1 0.00 0.00
6:45 am 06:45 Mostly Cloudy with Freezing Fog 20 -6.7 19 -7.2 96 96 ESE 5 7 30.27 1025 0 0 0.00 0.00
6:53 am 06:53 Mostly Cloudy with Freezing Fog 20 -6.7 18 -7.8 92 92 ESE 5 7 30.17 1022 0 0 0.00 0.00
7:53 am 07:53 Mostly Cloudy with Freezing Fog 24 -4.4 23 -5 96 96 Calm 30.17 1022 0 0 0.00 0.00
8:01 am 08:01 Mostly Cloudy with Freezing Fog 24 -4.4 24 -4.4 100 100 Calm 30.24 1024 1 1 0.00 0.00
8:13 am 08:13 Cloudy with Freezing Fog 25 -3.9 24 -4.4 96 96 Calm 30.24 1024 1 1 0.00 0.00
8:15 am 08:15 Cloudy with Mist and Fog 25 -3.9 24 -4.4 96 96 Calm 30.24 1024 1 1 0.00 0.00
8:22 am 08:22 Cloudy with Freezing Fog 25 -4 25 -4 100 100 Calm 30.24 1024 1 1 0.00 0.00
8:28 am 08:28 Cloudy with Freezing Fog 25 -4 25 -4 100 100 Calm 30.24 1024 0 0 0.00 0.00
8:35 am 08:35 Cloudy with Mist and Fog 25 -3.9 24 -4.4 96 96 Calm 30.24 1024 1 2 0.00 0.00
8:37 am 08:37 Cloudy with Mist and Fog 25 -3.9 25 -3.9 100 100 Calm 30.24 1024 2 2 0.00 0.00
8:45 am 08:45 Cloudy with Mist and Fog 25 -3.9 25 -3.9 100 100 Calm 30.24 1024 3 4 0.00 0.00
8:53 am 08:53 Cloudy with Mist and Fog 26 -3.3 24 -4.4 92 92 Calm 30.17 1022 3 5 0.00 0.00
9:08 am 09:08 Cloudy with Mist and Fog 27 -3 25 -4 93 93 Calm 30.21 1023 3 4 0.00 0.00
9:23 am 09:23 Cloudy with Mist and Fog 26 -3.3 26 -3.3 100 100 VRB 3 6 30.21 1023 2 3 0.00 0.00
9:31 am 09:31 Cloudy with Mist and Fog 27 -2.8 26 -3.3 96 96 Calm 30.21 1023 2 3 0.00 0.00
9:50 am 09:50 Mostly Cloudy with Mist and Fog 25 -4 25 -4 100 100 S 8 13 30.24 1024 1 2 0.00 0.00
9:53 am 09:53 Mostly Cloudy with Freezing Fog 25 -3.9 24 -4.4 96 96 SSE 3 6 30.15 1021 1 1 0.00 0.00
10:01 am 10:01 Mostly Cloudy with Freezing Fog 26 -3.3 25 -3.9 96 96 VRB 3 6 30.18 1022 0 0 0.00 0.00
10:06 am 10:06 Mostly Cloudy with Mist and Fog 27 -3 25 -4 93 93 Calm 30.18 1022 3 5 0.00 0.00
10:53 am 10:53 Mostly Cloudy with Mist and Fog 28 -2.2 26 -3.3 92 92 SE 5 7 30.12 1020 3 5 0.00 0.00
11:04 am 11:04 Partly Cloudy with Mist and Fog 27 -3 27 -3 100 100 VRB 3 6 30.18 1022 3 4 0.00 0.00
11:07 am 11:07 Partly Cloudy with Mist and Fog 27 -2.8 26 -3.3 96 96 Calm 30.18 1022 3 5 0.00 0.00
11:53 am 11:53 Cloudy 27 -2.8 26 -3.3 96 96 WSW 6 9 30.11 1020 10 16 0.00 0.00
12:53 pm 12:53 Mostly Sunny 30 -1.1 28 -2.2 92 92 Calm 30.04 1017 10 16 0.00 0.00
1:53 pm 13:53 Mostly Cloudy 31 -0.6 29 -1.7 92 92 WNW 5 7 30.02 1017 6 10 0.00 0.00
2:53 pm 14:53 Partly Cloudy 33 0.6 30 -1.1 89 89 Calm 29.98 1015 7 11 0.00 0.00
3:53 pm 15:53 Cloudy 34 1.1 30 -1.1 85 85 W 7 11 29.93 1013 10 16 0.00 0.00
4:53 pm 16:53 Cloudy 34 1.1 30 -1.1 85 85 Calm 29.93 1013 9 14 0.00 0.00
5:53 pm 17:53 Cloudy 36 2.2 31 -0.6 82 82 E 7 11 29.91 1013 10 16 0.00 0.00
6:53 pm 18:53 Cloudy 32 0 30 -1.1 92 92 SW 5 7 29.93 1014 10 16 0.00 0.00
7:53 pm 19:53 Cloudy 31 -0.6 30 -1.1 96 96 W 7 11 29.94 1014 10 16 0.00 0.00
8:53 pm 20:53 Cloudy 33 0.6 31 -0.6 92 92 N 3 6 29.93 1014 10 16 0.00 0.00
9:53 pm 21:53 Cloudy 33 0.6 30 -1.1 89 89 E 3 6 29.93 1013 10 16 0.00 0.00
10:53 pm 22:53 Cloudy 32 0 30 -1.1 92 92 VRB 3 6 29.93 1014 8 13 0.00 0.00
11:53 pm 23:53 Mostly Cloudy 33 0.6 30 -1.1 89 89 ENE 3 6 29.94 1014 10 16 0.00 0.00

Powered by Vaisala Xweather